CST,Max TemperatureF,Mean TemperatureF,Min TemperatureF,Max Dew PointF,MeanDew PointF,Min DewpointF,Max Humidity, Mean Humidity, Min Humidity, Max Sea Level PressureIn, Mean Sea Level PressureIn, Min Sea Level PressureIn, Max VisibilityMiles, Mean VisibilityMiles, Min VisibilityMiles, Max Wind SpeedMPH, Mean Wind SpeedMPH, Max Gust SpeedMPH,PrecipitationIn, CloudCover, Events, WindDirDegrees
2013-1-1,36,32,26,36,32,21,100,94,81,30.23,30.12,30.07,10,5,1,13,5,,0.00,8,,350
2013-1-2,31,24,18,21,17,13,85,72,54,30.32,30.27,30.20,10,10,10,9,6,,0.00,0,,337
2013-1-3,37,28,20,27,23,17,92,80,62,30.44,30.35,30.27,10,9,7,9,2,,0.00,0,,283
2013-1-4,38,31,24,28,25,22,92,79,58,30.48,30.42,30.40,10,9,6,9,2,,0.00,1,,274
2013-1-5,41,33,25,32,28,23,92,79,61,30.40,30.31,30.21,10,9,7,9,6,,0.00,4,,195
2013-1-6,39,33,26,35,28,22,92,79,70,30.43,30.27,30.14,10,9,6,15,10,22,0.00,5,,291
2013-1-7,41,31,21,28,24,19,96,79,56,30.50,30.38,30.27,10,8,4,9,2,,0.00,0,,152
2013-1-8,54,40,26,37,31,23,88,73,51,30.33,30.26,30.22,10,9,7,12,4,,0.00,1,,163
2013-1-9,57,50,43,46,42,37,97,80,64,30.49,30.39,30.26,10,9,6,8,4,,0.00,4,Rain,51
2013-1-10,63,53,43,60,49,38,100,88,71,30.47,30.24,29.99,10,7,1,14,9,,0.10,7,Rain,118
2013-1-11,65,58,52,61,55,49,100,88,63,29.99,29.93,29.87,10,7,0,21,14,,0.97,4,Fog-Rain-Thunderstorm,210
2013-1-12,68,61,54,68,61,54,100,96,81,30.00,29.90,29.72,10,8,3,25,8,23,0.09,6,Rain,164
2013-1-13,68,47,26,64,44,21,100,95,74,30.31,29.95,29.78,10,4,1,21,12,23,2.66,7,Rain-Thunderstorm,309
2013-1-14,28,24,21,22,20,16,88,81,74,30.47,30.40,30.31,10,10,7,14,10,,0.00,4,,9
2013-1-15,32,28,24,30,25,20,100,86,70,30.36,30.24,30.11,10,6,2,10,8,,0.10,5,Rain-Snow,32
2013-1-16,34,32,30,30,29,28,96,88,79,30.16,30.12,30.05,10,8,6,9,5,,0.00,4,,274
2013-1-17,46,38,30,36,30,25,96,76,58,30.49,30.27,30.16,10,9,5,17,6,25,0.00,1,,347
2013-1-18,45,35,25,32,27,23,91,74,56,30.58,30.46,30.29,10,10,10,14,7,,0.00,0,,187
2013-1-19,56,46,36,35,31,28,76,60,39,30.29,30.16,30.04,10,10,10,29,13,38,0.00,0,,209
2013-1-20,43,36,28,35,22,12,89,58,36,30.32,30.24,30.10,10,10,10,12,8,21,0.00,0,,331
2013-1-21,31,26,19,20,11,1,78,54,33,30.37,30.30,30.22,10,10,10,22,10,29,0.00,1,,317
2013-1-22,22,18,15,9,2,-1,58,46,37,30.49,30.43,30.38,10,10,10,13,7,,0.00,4,,315
2013-1-23,41,30,18,23,16,10,78,60,38,30.42,30.28,30.16,10,10,10,10,4,,0.00,1,,241
2013-1-24,32,26,20,21,7,-1,68,45,27,30.59,30.46,30.27,10,10,10,16,13,,0.00,0,,60
2013-1-25,34,29,24,27,21,5,100,79,39,30.31,30.19,30.13,10,7,1,10,6,,0.02,5,Snow,175
2013-1-26,36,30,24,25,21,18,96,72,47,30.40,30.35,30.25,10,9,5,9,3,,0.00,0,,358
2013-1-27,45,36,27,42,32,23,97,88,79,30.38,30.28,30.14,10,7,3,13,7,,0.04,4,Rain,133
2013-1-28,59,51,43,56,50,40,100,90,77,30.14,30.10,30.06,10,8,2,16,11,21,0.09,7,Rain,184
2013-1-29,69,60,52,63,58,51,97,86,78,30.05,29.79,29.47,10,9,6,34,15,44,0.00,5,,181
2013-1-30,62,47,32,59,47,24,100,90,69,29.88,29.53,29.37,10,6,0,25,14,44,1.37,7,Fog-Rain-Snow-Thunderstorm,282
2013-1-31,37,29,20,34,25,11,100,75,55,30.26,30.03,29.88,10,7,1,29,18,37,0.00,7,Snow,288